TimeCDT,TemperatureF,Dew PointF,Humidity,Sea Level PressureIn,VisibilityMPH,Wind Direction,Wind SpeedMPH,Gust SpeedMPH,PrecipitationIn,Events,Conditions,WindDirDegrees,DateUTC
12:15 AM,39.2,21.2,49,30.45,10.0,NNE,20.7,25.3,N/A,,Clear,20,2011-11-03 05:15:00
12:35 AM,39.2,21.2,49,30.45,10.0,NNE,18.4,24.2,N/A,,Clear,30,2011-11-03 05:35:00
12:55 AM,37.4,21.2,52,30.45,10.0,NE,18.4,21.9,N/A,,Clear,40,2011-11-03 05:55:00
1:15 AM,37.4,21.2,52,30.45,10.0,NE,18.4,25.3,N/A,,Clear,40,2011-11-03 06:15:00
1:55 AM,35.6,21.2,56,30.44,10.0,NNE,18.4,-,N/A,,Clear,20,2011-11-03 06:55:00
2:15 AM,35.6,21.2,56,30.44,10.0,NNE,16.1,24.2,N/A,,Clear,30,2011-11-03 07:15:00
2:35 AM,35.6,21.2,56,30.44,10.0,NNE,16.1,-,N/A,,Clear,30,2011-11-03 07:35:00
2:55 AM,35.6,21.2,56,30.44,10.0,NNE,18.4,-,N/A,,Clear,30,2011-11-03 07:55:00
3:15 AM,35.6,21.2,56,30.44,10.0,NNE,15.0,20.7,N/A,,Clear,20,2011-11-03 08:15:00
3:35 AM,33.8,21.2,60,30.43,10.0,NNE,19.6,-,N/A,,Clear,20,2011-11-03 08:35:00
3:55 AM,33.8,21.2,60,30.43,10.0,NNE,18.4,-,N/A,,Clear,20,2011-11-03 08:55:00
4:55 AM,33.8,21.2,60,30.43,10.0,NNE,18.4,-,N/A,,Clear,20,2011-11-03 09:55:00
5:15 AM,33.8,21.2,60,30.42,10.0,North,17.3,20.7,N/A,,Clear,10,2011-11-03 10:15:00
5:35 AM,33.8,21.2,60,30.42,10.0,North,17.3,-,N/A,,Clear,10,2011-11-03 10:35:00
5:55 AM,32.0,19.4,60,30.42,10.0,North,15.0,-,N/A,,Clear,10,2011-11-03 10:55:00
6:15 AM,32.0,19.4,60,30.42,10.0,North,16.1,-,N/A,,Clear,360,2011-11-03 11:15:00
6:35 AM,32.0,19.4,60,30.43,10.0,North,16.1,20.7,N/A,,Clear,10,2011-11-03 11:35:00
6:55 AM,32.0,19.4,60,30.43,10.0,North,15.0,-,N/A,,Clear,10,2011-11-03 11:55:00
7:15 AM,32.0,19.4,60,30.43,10.0,North,11.5,-,N/A,,Clear,10,2011-11-03 12:15:00
7:35 AM,32.0,19.4,60,30.43,10.0,North,12.7,-,N/A,,Clear,10,2011-11-03 12:35:00
7:55 AM,32.0,19.4,60,30.44,10.0,North,9.2,-,N/A,,Clear,10,2011-11-03 12:55:00
8:15 AM,32.0,17.6,55,30.44,10.0,North,10.4,-,N/A,,Clear,360,2011-11-03 13:15:00
8:35 AM,32.0,19.4,60,30.45,10.0,North,8.1,-,N/A,,Clear,350,2011-11-03 13:35:00
8:55 AM,33.8,19.4,56,30.46,10.0,North,5.8,-,N/A,,Clear,360,2011-11-03 13:55:00
9:15 AM,35.6,19.4,52,30.46,10.0,North,6.9,-,N/A,,Clear,360,2011-11-03 14:15:00
9:35 AM,37.4,19.4,48,30.47,10.0,North,5.8,-,N/A,,Clear,10,2011-11-03 14:35:00
10:15 AM,39.2,17.6,42,30.47,10.0,North,3.5,-,N/A,,Clear,360,2011-11-03 15:15:00
10:35 AM,42.8,15.8,34,30.46,10.0,ENE,12.7,-,N/A,,Clear,60,2011-11-03 15:35:00
10:55 AM,42.8,15.8,34,30.46,10.0,ENE,12.7,-,N/A,,Clear,70,2011-11-03 15:55:00
11:15 AM,44.6,15.8,31,30.46,9.0,ENE,10.4,-,N/A,,Clear,70,2011-11-03 16:15:00
11:35 AM,44.6,15.8,31,30.46,10.0,ENE,10.4,-,N/A,,Clear,70,2011-11-03 16:35:00
11:55 AM,46.4,15.8,29,30.45,10.0,ENE,8.1,-,N/A,,Clear,60,2011-11-03 16:55:00
12:15 PM,48.2,15.8,27,30.44,10.0,ENE,6.9,-,N/A,,Clear,60,2011-11-03 17:15:00
12:35 PM,50.0,15.8,26,30.43,10.0,NE,5.8,-,N/A,,Clear,50,2011-11-03 17:35:00
12:55 PM,51.8,17.6,26,30.42,10.0,ESE,6.9,-,N/A,,Clear,120,2011-11-03 17:55:00
1:15 PM,51.8,15.8,24,30.41,10.0,ESE,8.1,-,N/A,,Clear,110,2011-11-03 18:15:00
1:35 PM,53.6,15.8,22,30.40,10.0,ESE,10.4,18.4,N/A,,Clear,120,2011-11-03 18:35:00
1:55 PM,53.6,17.6,24,30.39,10.0,East,5.8,-,N/A,,Clear,80,2011-11-03 18:55:00
2:15 PM,53.6,17.6,24,30.38,10.0,SSW,6.9,-,N/A,,Clear,200,2011-11-03 19:15:00
2:35 PM,53.6,19.4,26,30.36,10.0,SW,5.8,-,N/A,,Clear,220,2011-11-03 19:35:00
2:55 PM,57.2,19.4,23,30.34,10.0,SE,5.8,-,N/A,,Clear,130,2011-11-03 19:55:00
3:15 PM,57.2,19.4,23,30.33,10.0,SSE,6.9,-,N/A,,Clear,150,2011-11-03 20:15:00
3:35 PM,57.2,19.4,23,30.32,10.0,South,4.6,-,N/A,,Clear,170,2011-11-03 20:35:00
3:55 PM,59.0,19.4,22,30.32,10.0,SSE,9.2,-,N/A,,Clear,150,2011-11-03 20:55:00
4:15 PM,57.2,19.4,23,30.30,10.0,East,10.4,-,N/A,,Clear,100,2011-11-03 21:15:00
4:35 PM,59.0,19.4,22,30.30,10.0,SE,8.1,-,N/A,,Clear,130,2011-11-03 21:35:00
4:55 PM,59.0,19.4,22,30.29,10.0,SE,5.8,-,N/A,,Clear,140,2011-11-03 21:55:00
5:15 PM,59.0,21.2,23,30.29,10.0,SE,6.9,-,N/A,,Clear,140,2011-11-03 22:15:00
5:35 PM,59.0,21.2,23,30.28,10.0,SSE,9.2,-,N/A,,Clear,160,2011-11-03 22:35:00
5:55 PM,59.0,21.2,23,30.28,10.0,SE,6.9,-,N/A,,Clear,140,2011-11-03 22:55:00
6:15 PM,57.2,21.2,25,30.27,10.0,SE,8.1,-,N/A,,Clear,130,2011-11-03 23:15:00
6:35 PM,57.2,21.2,25,30.27,10.0,SSE,9.2,-,N/A,,Clear,160,2011-11-03 23:35:00
6:55 PM,55.4,21.2,26,30.27,10.0,SE,8.1,-,N/A,,Clear,140,2011-11-03 23:55:00
7:15 PM,53.6,19.4,26,30.27,10.0,ESE,8.1,-,N/A,,Clear,110,2011-11-04 00:15:00
7:35 PM,50.0,17.6,28,30.27,10.0,ESE,5.8,-,N/A,,Clear,110,2011-11-04 00:35:00
7:55 PM,48.2,17.6,30,30.28,10.0,SSE,4.6,-,N/A,,Clear,160,2011-11-04 00:55:00
8:15 PM,48.2,17.6,30,30.28,10.0,East,4.6,-,N/A,,Clear,100,2011-11-04 01:15:00
8:35 PM,46.4,17.6,32,30.28,10.0,ESE,4.6,-,N/A,,Clear,110,2011-11-04 01:35:00
8:55 PM,44.6,17.6,34,30.28,10.0,ESE,3.5,-,N/A,,Clear,120,2011-11-04 01:55:00
9:15 PM,44.6,17.6,34,30.28,10.0,SE,4.6,-,N/A,,Clear,140,2011-11-04 02:15:00
9:35 PM,44.6,17.6,34,30.28,10.0,SE,4.6,-,N/A,,Clear,140,2011-11-04 02:35:00
9:55 PM,44.6,17.6,34,30.28,10.0,Calm,Calm,-,N/A,,Clear,0,2011-11-04 02:55:00
10:15 PM,44.6,17.6,34,30.28,10.0,Calm,Calm,-,N/A,,Clear,0,2011-11-04 03:15:00
10:35 PM,42.8,17.6,36,30.28,10.0,Calm,Calm,-,N/A,,Clear,0,2011-11-04 03:35:00
10:55 PM,42.8,17.6,36,30.28,10.0,Calm,Calm,-,N/A,,Clear,0,2011-11-04 03:55:00
11:15 PM,41.0,15.8,36,30.28,10.0,NNW,4.6,-,N/A,,Clear,330,2011-11-04 04:15:00
11:55 PM,39.2,14.0,36,30.26,10.0,WNW,5.8,-,N/A,,Clear,300,2011-11-04 04:55:00